User: anonymous   Login
Location: ????????
(54.9045°N, 39.1041°E)
Time: 02:43:58
(UTC+00:00)
Language:

CZ-4 R/B - Orbit

View from above orbital plane
View from above orbital plane
View from above satellite
View from above satellite

Ground track
Ground track

The orbit data is extracted from the following two-line orbital elements,

1 28059U 03049C   24174.48563584  .00000610  00000-0  15503-3 0  9995
2 28059  98.6108 137.0046 0048755 341.4346  18.5069 14.53807447 95717
Epoch (UTC): 22 June 2024 11:39:18
Eccentricity: 0.0048755
inclination: 98.6108°
perigee height: 678 km
apogee height: 748 km
right ascension of ascending node: 137.0046°
argument of perigee: 341.4346°
revolutions per day: 14.53807447
mean anomaly at epoch: 18.5069°
orbit number at epoch: 9571

The dashed part of the orbit path shows where the satellite is in the earth's shadow,  

DLR